Location: Linsted
(51.3000°N, 0.7833°E)
Time: 07:24:15
(UTC+00:00)

Daily predictions for brighter satellites

Satellite Brightness Start Highest point End
(mag) Time Altitude Azimuth Time Altitude Azimuth Time Altitude Azimuth
Cosmos 2084 3.7 16:29:06 10° NW 16:33:12 47° NE 16:37:28 10° ESE
Cosmos 1943 4.2 16:29:04 10° WSW 16:34:26 44° NW 16:39:49 10° NNE
Meteor PRIRODA 3.6 16:31:14 10° SSE 16:34:50 61° ENE 16:38:25 10° N
Cosmos 1833 Rocket 4.1 16:32:09 10° SE 16:35:51 18° E 16:39:36 10° ENE
NOSS 2-1 (E) 2.8 16:34:13 10° SW 16:37:26 74° SE 16:40:53 10° NE
deb Kosmos-1763 4.4 16:35:26 10° S 16:38:40 42° ESE 16:41:56 10° NE
CZ-2D R/B 4.4 16:37:31 10° ESE 16:40:35 23° ENE 16:43:39 10° NNE
ARGOS 4.3 16:38:20 10° ESE 16:42:25 22° NE 16:46:29 10° N
USA 267 3.4 16:40:15 10° ENE 16:46:47 68° SE 16:53:18 10° SW
YAOGAN 1 4.4 16:47:48 11° ENE 16:48:22 11° NE 16:49:28 10° NE
CZ-4B R/B 3.9 16:43:51 10° ESE 16:48:26 29° ENE 16:52:59 10° N
NOAA 12 4.1 16:43:07 10° SSE 16:48:26 81° ENE 16:53:47 10° NNW
Okean O Rocket 2.9 16:45:32 10° ESE 16:48:42 19° ENE 16:51:52 10° NNE
Cosmos 1606 2.7 16:45:04 10° S 16:48:46 59° E 16:52:31 10° NNE
Cosmos 1937 Rocket 4.1 16:44:15 10° NNW 16:49:09 35° NE 16:54:00 10° ESE
NOAA 6 4.1 16:44:18 10° SE 16:49:20 58° ENE 16:54:22 10° N
SL-16 R/B 4.4 16:45:26 10° N 16:50:13 24° NW 16:55:00 10° WSW
Cosmos 1408 Rocket 3.5 16:46:25 10° N 16:50:47 70° ENE 16:55:07 10° SSE
SMAP 3.1 16:50:00 10° SSE 16:54:35 61° ENE 16:59:11 10° N
SL-08 R/B 3.3 16:49:51 10° NNE 16:54:39 87° ESE 16:59:19 10° SSW
MOS 1 Rocket 4.3 16:50:52 10° N 16:55:52 50° WNW 17:00:34 10° SW
Cosmos 1743 Rocket 3.8 16:52:36 10° N 16:56:47 45° ENE 17:00:56 10° SSE
USA 229 DEB 3.9 16:50:25 10° NW 16:57:37 74° NE 17:05:22 10° SE
USA 229 3.9 16:50:30 10° NW 16:57:43 73° NE 17:05:27 10° SE
PSLV R/B 4.1 16:55:37 10° SE 16:59:03 38° ENE 17:02:31 10° N
CZ-2C R/B 3.8 16:55:58 10° NE 16:59:46 20° E 17:03:31 10° SE
Cosmos 44 3.5 16:55:15 10° NW 17:00:06 71° SW 17:04:38 10° SSE
USA 306 2.9 16:56:07 10° WSW 17:00:23 80° NNW 17:03:52 15° ENE
Cosmos 990 Rocket 3.9 16:56:11 10° NNW 17:01:24 68° ENE 17:06:33 10° SE
CZ-4C R/B 3.2 16:57:01 10° NW 17:03:20 44° NNE 17:10:52 10° E
Cosmos 1500 4.3 17:00:25 10° NNE 17:03:24 22° ENE 17:06:22 10° ESE
Cosmos 1464 Rocket 4.0 16:57:59 10° S 17:04:21 80° E 17:10:46 10° NNE
ATLAS 2AS CENTAUR R/B 3.8 16:59:00 10° W 17:06:19 41° NNW 17:12:57 11° NE
ERBS 2.1 17:04:21 10° WSW 17:07:33 88° SE 17:09:43 19° ENE
Cosmos 2360 Rocket 4.0 17:06:17 10° N 17:08:55 13° NNE 17:10:47 11° NE
SeaSat 1 4.2 17:07:05 10° NNE 17:11:02 25° NW 17:15:00 10° W
Meteor 2-2 Rocket 4.4 17:05:13 10° SSW 17:11:16 87° WNW 17:17:19 10° NNE
FengYun 1-2 T 4.4 17:05:44 10° SSE 17:11:21 82° WSW 17:16:56 10° NNW
Nadezhda 4 Rocket 4.0 17:07:32 10° N 17:13:54 89° E 17:20:15 10° S
Cosmos 1939 Rocket 3.0 17:09:54 10° SSE 17:14:02 84° WSW 17:18:09 10° NNW
GEOS 3 Rocket 3.9 17:09:52 10° ESE 17:14:52 47° NE 17:19:49 10° NW
Radarsat 4.5 17:10:06 10° SSE 17:15:17 81° ENE 17:20:32 10° NNW
USA 307 2.9 17:13:29 10° WSW 17:17:47 74° NNW 17:20:36 21° ENE
SJ 16-02 3.5 17:14:12 10° NW 17:18:03 30° WSW 17:21:52 10° SSW
NOSS 2-1 (C) 3.7 17:15:32 10° WSW 17:18:37 42° NW 17:21:05 16° NNE
NOSS 3-1 (A) 4.1 17:13:48 10° NW 17:21:07 87° SW 17:29:47 10° SE
TIMED 4.4 17:17:31 10° SSW 17:21:53 76° ESE 17:25:50 13° NNE
USA 234 4.1 17:15:56 10° SE 17:22:17 53° SW 17:28:40 10° WNW
CZ-2C R/B 3.9 17:17:33 10° S 17:22:20 49° W 17:27:00 10° NNW
ATLAS CENTAUR R/B 3.5 17:15:51 10° SSW 17:25:05 43° SE 17:27:51 21° E
Meteor 1-25 Rocket 4.1 17:20:47 10° N 17:26:22 76° ENE 17:31:57 10° SSE
Cosmos 1092 Rocket 4.0 17:20:06 10° N 17:26:28 70° ENE 17:32:47 10° SSE
Cosmos 1500 Rocket 3.6 17:22:01 10° N 17:26:30 89° W 17:30:55 10° S
Cosmos 1818 4.4 17:21:55 10° NW 17:26:50 32° NNE 17:29:26 22° ENE
Cosmos 2322 Rocket 3.6 17:23:30 10° NNW 17:27:29 19° NNE 17:28:41 18° NE
NOSS 2-1 (D) 4.0 17:25:00 10° WSW 17:28:01 36° NW 17:30:11 18° NNE
ATLAS CENTAUR R/B 2.8 17:25:36 10° W 17:29:30 34° NNW 17:32:54 14° NNE
NOSS 2-2 (D) 4.2 17:25:06 10° NW 17:29:49 60° NE 17:36:22 10° ESE
NOSS 2-2 (E) 4.2 17:25:57 10° NW 17:30:51 70° NE 17:37:45 10° SE
Cosmos 1656 4.4 17:25:27 10° NW 17:30:52 58° WSW 17:36:20 10° S
Cosmos 2369 3.7 17:25:31 10° NNW 17:31:13 60° NE 17:36:52 10° SE
COSMOS 2455 3.8 17:28:11 10° SSE 17:33:06 27° ESE 17:35:04 22° E
Cosmos 1666 4.4 17:30:21 10° NNE 17:31:29 16° NNE 17:31:29 16° NNE
Cosmos 1697 Rocket 2.6 17:28:01 10° NNW 17:33:41 84° ENE 17:39:18 10° SSE
Cosmos 1428 Rocket 4.4 17:28:57 10° N 17:35:05 70° ENE 17:41:12 10° SSE
Cosmos 1980 Rocket 2.3 17:30:59 10° NNW 17:36:35 53° NE 17:42:05 10° SE
Cosmos 1805 Rocket 3.4 17:33:22 10° N 17:37:43 73° ENE 17:42:03 10° SSE
USA 308 3.0 17:35:54 10° W 17:40:09 66° N 17:42:02 31° ENE
Cosmos 1842 Rocket 4.3 17:38:30 10° SSW 17:42:54 56° WNW 17:47:20 10° N
Landsat 5 4.4 17:43:53 27° ESE 17:43:53 27° ESE 17:46:57 10° SSE
SL-16 R/B 3.2 17:38:46 10° NNW 17:43:27 25° NE 17:44:20 24° NE
Sich 1 2.9 17:39:18 10° N 17:43:34 67° ENE 17:47:51 10° SSE
Cosmos 1812 4.2 17:42:09 10° SSE 17:43:54 21° SE 17:43:54 21° SE
Cosmos 1627 Rocket 4.4 17:39:29 10° N 17:45:43 81° ENE 17:51:52 10° SSE
ISS -3.8 17:43:02 10° W 17:46:27 85° S 17:47:25 44° ESE
Cosmos 1898 Rocket 3.7 17:41:28 10° NNW 17:46:45 74° WSW 17:51:56 10° SSE
Cosmos 2333 Rocket 4.0 17:44:14 10° N 17:47:14 14° NNE 17:47:49 14° NNE
Cosmos 2034 Rocket 4.2 17:43:08 10° SSW 17:49:16 71° WNW 17:55:27 10° N
Cosmos 1782 2.9 17:46:06 10° S 17:49:58 51° E 17:51:20 34° NE
Cosmos 2082 Rocket 2.9 17:45:42 10° SSE 17:50:39 32° ESE 17:51:42 30° E
Cosmos 540 Rocket 3.6 17:45:50 10° S 17:50:42 48° ESE 17:52:54 29° NE
Cosmos 468 Rocket 3.9 17:46:14 10° SSW 17:51:23 76° ESE 17:55:02 20° NNE
Cosmos 2221 3.9 17:48:40 10° SW 17:52:40 39° WNW 17:56:44 10° N
USA 276 4.1 17:51:37 10° W 17:54:14 25° SSW 17:56:01 15° SSE
Cosmos 1602 3.9 17:51:21 10° NNW 17:55:12 72° W 17:59:02 10° S
Cosmos 2278 3.8 17:50:50 10° NNW 17:56:28 55° NE 18:00:06 22° SE
CZ-4 R/B 3.1 18:00:06 19° NNE 18:00:06 19° NNE 18:01:33 10° N
H-2A R/B 2.2 17:53:03 10° S 17:58:16 74° WSW 18:03:21 10° NNW
Cosmos 2279 Rocket 4.1 17:54:01 10° SSE 17:59:56 49° E 18:05:52 10° NNE
YAOGAN 3 4.4 17:55:45 10° SSE 18:00:06 74° ENE 18:04:28 10° N
Cosmos 2266 Rocket 4.4 17:55:30 10° N 18:01:23 38° ENE 18:04:50 22° ESE
COSMOS 2406 3.2 17:56:26 10° SSW 18:02:04 60° ESE 18:04:43 31° NE
SL-16 R/B 4.5 18:01:42 10° NNW 18:03:11 11° N 18:04:41 10° N
deb Chang Zheng 4 3.5 17:58:57 10° SSE 18:03:16 87° WSW 18:07:37 10° NNW
Meteor 2-16 Rocket 4.3 17:59:36 10° N 18:05:43 67° ENE 18:11:48 10° SSE
COSMO-SKYMED 1 2.5 18:05:48 37° NNE 18:07:24 66° ESE 18:11:43 10° S
SL-24 R/B - RUBIN 2 3.4 18:02:57 10° NW 18:07:37 87° NE 18:09:23 36° SE
USA 305 3.0 18:04:17 10° W 18:08:28 60° N 18:09:08 52° NE
Lacrosse 5 rocket 1.6 18:04:48 10° WNW 18:08:33 45° NNE 18:08:35 45° NNE
Cosmos 1634 Rocket 3.9 18:06:27 10° S 18:12:48 87° E 18:19:11 10° N
Helios 1B 4.4 18:15:47 44° NNE 18:17:06 80° ESE 18:21:27 10° SSW
Meteor 1-11 Rocket 4.4 18:12:01 10° N 18:15:54 33° NE 18:15:54 33° NE
Cosmos 1833 Rocket 2.6 18:13:25 10° SSW 18:19:02 87° WNW 18:21:50 32° NNE
Cosmos 1933 4.1 18:15:42 10° SSW 18:19:40 53° WNW 18:22:32 18° N
Cosmos 2026 Rocket 4.4 18:14:42 10° NNW 18:20:48 62° W 18:26:46 10° S
ARGOS 3.3 18:16:43 10° S 18:22:09 77° WSW 18:27:35 10° NNW
Cosmos 1655 Rocket 4.1 18:16:27 10° N 18:22:45 54° ENE 18:28:58 10° SSE
Cosmos 1633 Rocket 2.9 18:18:47 10° N 18:23:11 78° E 18:24:28 45° SSE
YAOGAN 1 3.2 18:24:57 42° N 18:24:57 42° N 18:27:57 10° N
Okean O Rocket 1.9 18:20:11 10° S 18:24:37 66° WSW 18:29:04 10° NNW
Cosmos 2219 Rocket 4.1 18:21:49 10° N 18:24:17 16° NNE 18:24:17 16° NNE
Feng Yun 1-1 Rocket 4.3 18:20:20 10° SSE 18:26:16 83° ENE 18:32:11 10° NNW
Meteor 1-26 Rocket 4.4 18:20:34 10° SSW 18:26:32 82° WNW 18:32:37 10° NNE
NOSS 2-2 (C) 4.5 18:22:13 10° NW 18:27:13 71° SW 18:33:10 14° SSE
Cosmos 44 Rocket 3.5 18:23:47 10° NW 18:28:19 53° NNE 18:28:19 53° NNE
CZ-4B R/B 3.8 18:23:24 10° S 18:28:44 55° WSW 18:34:01 10° NNW
Cosmos 1125 Rocket 4.3 18:24:38 10° NNW 18:28:19 36° NNE 18:28:19 36° NNE
Cosmos 1763 Rocket 4.0 18:24:41 10° SW 18:29:40 54° WNW 18:32:33 24° N
USA 267 3.4 18:27:14 38° NE 18:29:50 65° NNW 18:36:17 10° W
Cosmos 841 Rocket 3.3 18:27:58 10° SSW 18:33:07 82° ESE 18:33:57 63° NE
SL-08 RB Rocket 3.9 18:34:44 10° S 18:39:23 71° WSW 18:44:01 10° NNW
USA 306 3.4 18:36:19 10° WNW 18:39:52 52° NW 18:39:52 52° NW
CZ-2C R/B 2.7 18:36:54 19° N 18:40:38 70° WNW 18:45:46 10° SSW
Cosmos 2180 Rocket 4.4 18:35:26 10° S 18:41:46 74° E 18:45:58 22° NNE
Cosmos 1666 Rocket 4.3 18:41:49 10° NNW 18:46:11 53° W 18:50:29 10° S
Cosmos 1151 Rocket 3.7 18:44:54 10° SSW 18:48:06 48° SSW 18:48:06 48° SSW
CZ-4C R/B 3.0 18:45:27 10° NW 18:52:31 78° SW 18:56:41 32° SSE
GEOS 3 Rocket 4.3 18:50:17 27° S 18:52:54 51° SW 18:57:59 10° NW
Meteor 2-15 4.3 18:48:27 10° S 18:54:03 69° SE 18:54:03 69° SE
Cosmos 2360 Rocket 3.6 18:49:35 10° NNW 18:52:33 26° N 18:52:33 26° N
NOSS 3-4 (A) 4.5 18:50:36 10° NW 18:56:28 34° NNE 18:56:28 34° NNE
NOSS 3-4 (C) 4.5 18:50:41 10° NW 18:56:33 34° NNE 18:56:33 34° NNE
USA 307 4.1 18:53:43 10° WNW 18:56:37 39° NW 18:56:37 39° NW
ATLAS 2AS CENTAUR R/B 3.8 18:52:29 10° WNW 18:59:11 32° N 19:00:23 30° NNE
ATLAS CENTAUR R/B 3.9 19:06:45 10° NW 19:09:00 16° NNW 19:09:00 16° NNW
Cosmos 1818 3.9 19:05:28 10° NW 19:10:06 63° NW 19:10:06 63° NW
Cosmos 2322 Rocket 3.2 19:07:04 10° NNW 19:10:30 36° N 19:10:30 36° N
COSMOS 2455 3.0 19:12:31 10° SW 19:18:15 71° WNW 19:18:15 71° WNW
Cosmos 1980 Rocket 3.8 19:15:22 10° NW 19:20:21 32° WSW 19:25:18 10° SSW
ISS -0.3 19:20:01 10° W 19:20:24 12° W 19:20:24 12° W
SL-16 R/B 3.1 19:22:34 10° NNW 19:26:13 42° NNW 19:26:13 42° NNW
CZ-4 R/B 4.4 19:36:06 12° NW 19:36:06 12° NW 19:36:23 10° NW
Cosmos 2333 Rocket 4.2 19:27:59 10° NNW 19:29:50 19° N 19:29:50 19° N
Cosmos 2082 Rocket 3.0 19:28:56 10° SW 19:33:35 49° W 19:33:35 49° W
Lacrosse 5 rocket 4.4 19:43:51 10° WNW 19:44:11 12° WNW 19:44:11 12° WNW
USA 267 4.3 20:14:34 39° NW 20:14:34 39° NW 20:18:47 10° WNW
